Location: Ellingshausen
(50.5460°N, 10.4723°E)
Time: 23:49:14
(UTC+00:00)

Cosmos 540 Rocket - Pass Details

Date: 18 January 2026
Orbit: 736 x 747 km, 74.1° (Epoch: 17 February)

Event Time Altitude Azimuth Distance (km) Brightness Sun altitude
Exits shadow 06:20:18 - 321° (NW) 2,575 5.7 -7.9°
Reaches altitude 10° 06:21:15 10° 316° (NW) 2,251 5.4 -7.8°
Maximum altitude 06:25:29 27° 260° (W) 1,397 4.4 -7.1°
Drops below altitude 10° 06:29:42 10° 203° (SSW) 2,241 6.0 -6.5°
Sets 06:32:19 0° 192° (SSW) 3,160 6.9 -6.1°
